Вернуться в каталог

ATLAS 2 CENTAUR R/B

АктивенHEO
NORAD 23968·ROCKET BODY·🇺🇸 United States

Запущен Jul 25, 1996 с Cape Canaveral Space Force Station

Loading…

Ближайшие Пролёты (ближайшие 24 часа)

TLE

СвежийSource: Space-Track

Эпоха: Sep 14, 2026, 08:01 UTC

1 23968U 96042B   26257.33433569  .00001442  00000-0  82079-3 0  9997
2 23968  26.6891 135.4812 6323350 232.5818  51.5600  3.52129382360895

Отслеживайте ATLAS 2 CENTAUR R/B в реальном времени с AllMySat

Download on the App Store